Main page
METAR-TAF:

METAR-TAF

Airports :

Jacarepaguá Airport

Rio de Janeiro, Rio de Janeiro, Brazil

latitude: 22-59S, longitude: 043-22W, elevation: 3 m

Current weather observation

The report was made 9 hours and 57 minutes ago, at 22:00 UTC
Wind 4 kt from the East
Temperature 27°C
Humidity 74%
Pressure 1014 hPa
Visibility 10 km or more
Few clouds at a height of 2500 ft
Broken clouds at a height of 10000 ft

METAR: SBJR 232200Z 10004KT 9999 FEW025 BKN100 27/22 Q1014

Time: 04:57 (07:57 UTC)


TAF: missing

Weather observations and forecasts of more than 4000 airports (METAR and TAF reports).

The available stations are represented by yellow and red dots on the map.

Hover mouse over dot to see the name of the station.

Then click to see weather observations and forecasts.

To change the map : click on the green buttons with a black cross to zoom in, on the green button with a dash to zoom out, or on the green arrows for adjacent maps.


METAR-TAF: